Regional Weather Roundup
Issued by NWS

Home | Current Version | Previous Version | Text Only | Print | Product List | Glossary On
Versions: 1 2 3 4 5 6 7 8 9 10 11 12 13 14 15 16 17 18 19 20 21 22 23 24 25 26 27 28 29 30 31 32 33 34 35 36 37 38 39 40 41 42 43 44 45 46 47 48 49 50
000
ASUS46 KSEW 032110
RWRWA

WASHINGTON REGIONAL WEATHER ROUNDUP
NATIONAL WEATHER SERVICE SEATTLE WA
100 PM PST SAT DEC 03 2016

NOTE:"FAIR" INDICATES FEW OR NO CLOUDS BELOW 12,000 FEET WITH NO
SIGNIFICANT WEATHER AND/OR OBSTRUCTIONS TO VISIBILITY.

WAZ507-509-555>559-032200-
SEATTLE, TACOMA, EVERETT, AND VICINITY

CITY           SKY/WX    TMP DP  RH WIND       PRES   REMARKS
EVERETT        CLOUDY    46  41  82 SE16      30.25R
BOEING FIELD   CLOUDY    49  42  77 S14G21    30.28S
RENTON         CLOUDY    49  41  74 S13       30.28S
SEATAC AIRPORT CLOUDY    47  41  80 S14       30.27F
JBLM-MCCHORD   CLOUDY    48  43  84 SW15      30.30R
PUYALLUP       FAIR      48  41  76 SW8       30.30S
BREMERTON      CLOUDY    45  43  93 S16       30.28F
JBLM-FT LEWIS  CLOUDY    48  46  93 S9        30.29S
TACOMA NARROWS CLOUDY    47  41  80 SW13G24   30.29R
$$

WAZ001-503-506-510-514-515-032200-
NORTH INTERIOR

CITY           SKY/WX    TMP DP  RH WIND       PRES   REMARKS
BELLINGHAM     CLOUDY    46  43  89 S12G22    30.22S
FRIDAY HARBOR  CLOUDY    48  42  80 S5        30.24S
EASTSOUND      CLOUDY    48  41  76 SW8       30.22S
PORT ANGELES   CLOUDY    50  38  63 N5        30.22F
EDIZ HOOK      MOCLDY    49  39  68 E3        30.23F
PORT TOWNSEND  PTSUNNY   45  43  93 SE7       30.24F
NAS WHIDBEY    CLOUDY    48  40  73 SE12      30.27F
ARLINGTON      CLOUDY    46  37  71 SE9       30.28S
BURLINGTON     PTSUNNY   46  43  87 SE7       30.25F
$$

WAZ020-022-039-040-504-511-512-032200-
SOUTHWEST INTERIOR

CITY           SKY/WX    TMP DP  RH WIND       PRES   REMARKS
SHELTON        CLOUDY    48  45  89 S7        30.26F
OLYMPIA        LGT RAIN  47  45  93 S10       30.30F
CHEHALIS       PTSUNNY   50  46  87 S10       30.31F
KELSO          LGT RAIN  47  44  90 SE6       30.37S
VANCOUVER      PTSUNNY   51  43  74 SW6       30.36F
SCAPPOOSE, OR  PTSUNNY   49  43  80 SE7       30.36S
PORTLAND, OR   PTSUNNY   52  44  74 SW9       30.37S
$$

WAZ021-516-517-032200-
WASHINGTON COAST

CITY           SKY/WX    TMP DP  RH WIND       PRES   REMARKS
FORKS          CLOUDY    47  44  90 SW9       30.24F
HOQUIAM        CLOUDY    50  46  86 SW13      30.30F
ASTORIA, OR    CLOUDY    53  41  63 W17G24    30.33F
$$

WAZ019-023-024-040-567>569-032200-
CASCADE MOUNTAINS AND COLUMBIA GORGE

CITY           SKY/WX    TMP DP  RH WIND       PRES   REMARKS
STAMPEDE PASS  LGT SNOW  31  31 100 W10G23    30.15R VSB 3/4 WCI  22
TROUTDALE, OR  PTSUNNY   52  43  71 SW9       30.37F
THE DALLES, OR LGT RAIN  52  39  61 NW16      30.26F
$$

WAZ026-027-041>044-520-521-032200-
EAST SLOPES

CITY           SKY/WX    TMP DP  RH WIND       PRES   REMARKS
OMAK           CLOUDY    36  31  82 S6        30.14S
WENATCHEE      MOSUNNY   43  34  70 E5        30.11F
ELLENSBURG     MOSUNNY   46  33  60 NW22G32   30.14F
YAKIMA         MOSUNNY   50  34  54 VRB7      30.15F
$$

WAZ028-034-035-032200-
COLUMBIA BASIN

CITY           SKY/WX    TMP DP  RH WIND       PRES   REMARKS
EPHRATA        PTSUNNY   46  33  60 SW7       30.12F
MOSES LAKE     PTSUNNY   48  33  56 W12       30.14F
PASCO          PTSUNNY   53  38  56 SW13      30.23R
HERMISTON, OR  MOSUNNY   52  36  54 W18G28    30.24S
$$

WAZ036>038-032200-
NORTHEAST WASHINGTON

CITY           SKY/WX    TMP DP  RH WIND       PRES   REMARKS
SPOKANE GEIGER PTSUNNY   41  32  70 SW17      30.11F
SPOKANE FELTS  MOSUNNY   43  33  68 SW9       30.14F
FAIRCHILD AFB  PTSUNNY   40  34  79 SW13      30.11F
COEURDALENE,ID MOSUNNY   42  34  73 SW16      30.12F
DEER PARK      MOSUNNY   41  32  70 SW9       30.11F
$$

WAZ029>033-032200-
SOUTHEAST WASHINGTON

CITY           SKY/WX    TMP DP  RH WIND       PRES   REMARKS
PULLMAN        CLOUDY    42  33  70 W14G22    30.17S
LEWISTON, ID   MOSUNNY   50  33  52 NW3       30.18F
WALLA WALLA    PTSUNNY   49  33  54 SW17G25   30.22F
PENDLETON, OR  MOSUNNY   49  34  56 W17       30.22F
$$



USA.gov is the U.S. government's official web portal to all federal, state and local government web resources and services.